Radiation Dose at Monitoring Post of Fukushima Daini Nuclear Power Station
Date,Time,MP-1(microSv/h),MP-2(microSv/h),MP-3(microSv/h),MP-4(microSv/h),MP-5(microSv/h),MP-6(microSv/h),MP-7(microSv/h),Wind Direction,Wind Velocity(m/s),Rain
2017/12/26,00:00,0.337,0.204,0.340,0.318,0.304,0.168,0.101,west-northwest,5.4,No
2017/12/26,00:10,0.337,0.204,0.339,0.318,0.303,0.168,0.101,west-northwest,4.5,No
2017/12/26,00:20,0.337,0.204,0.340,0.318,0.302,0.168,0.100,west,3.8,No
2017/12/26,00:30,0.336,0.203,0.341,0.318,0.304,0.168,0.100,west,5.4,No
2017/12/26,00:40,0.337,0.204,0.340,0.319,0.305,0.169,0.100,west-northwest,4.8,No
2017/12/26,00:50,0.336,0.204,0.341,0.318,0.304,0.169,0.101,west-northwest,4.0,No
2017/12/26,01:00,0.338,0.204,0.339,0.318,0.303,0.169,0.101,north-northwest,2.2,No
2017/12/26,01:10,0.337,0.204,0.339,0.319,0.304,0.168,0.101,northwest,1.3,No
2017/12/26,01:20,0.336,0.204,0.340,0.319,0.305,0.167,0.100,west-northwest,4.4,No
2017/12/26,01:30,0.337,0.204,0.341,0.318,0.304,0.167,0.101,west-southwest,1.7,No
2017/12/26,01:40,0.337,0.205,0.340,0.318,0.304,0.169,0.101,southwest,1.8,No
2017/12/26,01:50,0.338,0.204,0.340,0.318,0.304,0.168,0.100,southwest,2.6,No
2017/12/26,02:00,0.338,0.204,0.339,0.318,0.303,0.169,0.101,southwest,2.6,No
2017/12/26,02:10,0.336,0.205,0.341,0.319,0.303,0.168,0.101,south-southwest,2.9,No
2017/12/26,02:20,0.337,0.204,0.341,0.317,0.303,0.169,0.101,southwest,3.0,No
2017/12/26,02:30,0.337,0.203,0.341,0.319,0.302,0.168,0.100,southwest,3.7,No
2017/12/26,02:40,0.337,0.203,0.339,0.319,0.303,0.169,0.100,west-southwest,2.3,No
2017/12/26,02:50,0.336,0.204,0.340,0.318,0.302,0.167,0.100,southwest,2.3,No
2017/12/26,03:00,0.337,0.204,0.341,0.318,0.303,0.168,0.101,southwest,4.0,No
2017/12/26,03:10,0.336,0.204,0.341,0.318,0.303,0.169,0.101,southwest,4.2,No
2017/12/26,03:20,0.336,0.205,0.341,0.319,0.304,0.168,0.101,south-southwest,4.6,No
2017/12/26,03:30,0.337,0.204,0.342,0.319,0.304,0.168,0.101,south-southwest,3.0,No
2017/12/26,03:40,0.337,0.203,0.339,0.319,0.304,0.168,0.100,south-southwest,2.7,No
2017/12/26,03:50,0.336,0.205,0.341,0.320,0.302,0.168,0.101,south-southwest,4.2,No
2017/12/26,04:00,0.337,0.204,0.341,0.319,0.303,0.168,0.101,south-southwest,4.9,No
2017/12/26,04:10,0.337,0.204,0.340,0.320,0.302,0.169,0.101,southwest,3.8,No
2017/12/26,04:20,0.337,0.203,0.341,0.319,0.304,0.168,0.101,south-southwest,5.3,No
2017/12/26,04:30,0.336,0.203,0.339,0.319,0.303,0.168,0.100,south-southwest,5.3,No
2017/12/26,04:40,0.336,0.204,0.342,0.319,0.303,0.168,0.100,south-southwest,4.8,No
2017/12/26,04:50,0.337,0.204,0.342,0.318,0.302,0.168,0.101,southwest,4.8,No
2017/12/26,05:00,0.337,0.204,0.340,0.318,0.303,0.168,0.101,south-southwest,4.0,No
2017/12/26,05:10,0.337,0.204,0.339,0.319,0.303,0.169,0.101,southwest,2.2,No
2017/12/26,05:20,0.337,0.204,0.339,0.318,0.302,0.168,0.100,southwest,3.7,No
2017/12/26,05:30,0.337,0.203,0.341,0.318,0.303,0.168,0.101,southwest,3.8,No
2017/12/26,05:40,0.336,0.204,0.340,0.318,0.302,0.168,0.100,southwest,3.6,No
2017/12/26,05:50,0.337,0.204,0.341,0.318,0.302,0.169,0.101,west-southwest,3.8,No
2017/12/26,06:00,0.337,0.203,0.341,0.320,0.303,0.168,0.100,southwest,2.6,No
2017/12/26,06:10,0.336,0.203,0.341,0.320,0.303,0.168,0.100,south-southwest,4.0,No
2017/12/26,06:20,0.338,0.204,0.340,0.318,0.303,0.168,0.101,south-southwest,4.9,No
2017/12/26,06:30,0.337,0.203,0.341,0.318,0.302,0.169,0.101,southwest,3.5,No
2017/12/26,06:40,0.336,0.203,0.340,0.319,0.302,0.169,0.100,south-southwest,3.7,No
2017/12/26,06:50,0.337,0.204,0.340,0.318,0.302,0.168,0.100,south-southwest,3.2,No
2017/12/26,07:00,0.337,0.204,0.340,0.318,0.303,0.169,0.101,west-southwest,2.1,No
2017/12/26,07:10,0.337,0.203,0.340,0.320,0.303,0.169,0.101,southwest,1.4,No
2017/12/26,07:20,0.337,0.204,0.342,0.317,0.301,0.169,0.100,south-southwest,2.5,No
2017/12/26,07:30,0.336,0.205,0.340,0.317,0.302,0.168,0.101,south-southeast,1.3,No
2017/12/26,07:40,0.336,0.205,0.341,0.318,0.303,0.168,0.100,south-southeast,2.2,No
2017/12/26,07:50,0.337,0.204,0.340,0.318,0.303,0.168,0.101,south,2.5,No
2017/12/26,08:00,0.338,0.203,0.340,0.318,0.302,0.170,0.101,south-southwest,2.0,No
2017/12/26,08:10,0.338,0.203,0.341,0.317,0.302,0.169,0.101,south,2.1,No
2017/12/26,08:20,0.337,0.204,0.340,0.317,0.304,0.168,0.100,south,3.4,No
2017/12/26,08:30,0.336,0.205,0.340,0.318,0.304,0.168,0.102,south,3.3,No
2017/12/26,08:40,0.337,0.203,0.342,0.317,0.303,0.168,0.100,south,3.0,No
2017/12/26,08:50,0.337,0.204,0.340,0.318,0.303,0.167,0.100,south,2.2,No
2017/12/26,09:00,0.338,0.204,0.341,0.318,0.303,0.169,0.100,south,1.8,No
2017/12/26,09:10,0.337,0.205,0.341,0.319,0.303,0.168,0.100,south,1.7,No
2017/12/26,09:20,0.336,0.205,0.340,0.317,0.304,0.168,0.100,south,2.9,No
2017/12/26,09:30,0.337,0.202,0.342,0.318,0.303,0.168,0.101,south,3.9,No
2017/12/26,09:40,0.338,0.204,0.341,0.319,0.303,0.169,0.101,south-southwest,4.5,No
2017/12/26,09:50,0.337,0.204,0.340,0.319,0.303,0.168,0.100,south,5.7,No
2017/12/26,10:00,0.336,0.202,0.341,0.318,0.303,0.169,0.100,south,5.9,No
2017/12/26,10:10,0.338,0.204,0.340,0.319,0.304,0.170,0.101,south-southeast,6.0,No
2017/12/26,10:20,0.337,0.203,0.342,0.319,0.303,0.170,0.101,south,6.8,No
2017/12/26,10:30,0.334,0.203,0.341,0.319,0.302,0.169,0.101,south,6.2,No
2017/12/26,10:40,0.337,0.205,0.340,0.319,0.305,0.170,0.100,south,5.7,No
2017/12/26,10:50,0.335,0.204,0.342,0.318,0.304,0.169,0.101,south,4.5,No
2017/12/26,11:00,0.336,0.204,0.341,0.320,0.306,0.169,0.100,south-southeast,3.9,No
2017/12/26,11:10,0.337,0.205,0.341,0.318,0.303,0.168,0.100,west-southwest,2.1,No
2017/12/26,11:20,0.334,0.204,0.341,0.317,0.304,0.169,0.100,west,6.9,No
2017/12/26,11:30,0.337,0.204,0.339,0.319,0.302,0.170,0.100,west-southwest,6.2,No
2017/12/26,11:40,0.335,0.204,0.339,0.317,0.305,0.168,0.102,west,5.9,No
2017/12/26,11:50,0.337,0.204,0.340,0.319,0.304,0.169,0.101,west-southwest,6.6,No
2017/12/26,12:00,0.335,0.204,0.339,0.318,0.303,0.171,0.101,west,10.3,No
2017/12/26,12:10,0.336,0.204,0.342,0.318,0.303,0.170,0.100,west,11.2,No
2017/12/26,12:20,0.336,0.205,0.340,0.318,0.304,0.168,0.102,west,9.8,No
2017/12/26,12:30,0.336,0.205,0.341,0.318,0.306,0.171,0.101,west,9.2,No
2017/12/26,12:40,0.337,0.204,0.341,0.320,0.305,0.170,0.101,west-southwest,10.0,No
2017/12/26,12:50,0.335,0.205,0.340,0.318,0.307,0.170,0.101,west-southwest,11.1,No
2017/12/26,13:00,0.337,0.205,0.341,0.320,0.306,0.169,0.101,west,8.2,No
2017/12/26,13:10,0.337,0.204,0.342,0.318,0.305,0.170,0.100,west,6.2,No
2017/12/26,13:20,0.337,0.205,0.341,0.319,0.308,0.169,0.101,west,5.4,No
2017/12/26,13:30,0.338,0.204,0.342,0.319,0.306,0.170,0.101,west,6.7,No
2017/12/26,13:40,0.337,0.205,0.340,0.320,0.307,0.171,0.101,west-southwest,7.4,No
2017/12/26,13:50,0.339,0.205,0.342,0.319,0.304,0.170,0.100,west,8.1,No
2017/12/26,14:00,0.338,0.204,0.341,0.319,0.303,0.170,0.101,west-southwest,8.4,No
2017/12/26,14:10,0.338,0.205,0.341,0.320,0.305,0.169,0.101,west,6.4,No
2017/12/26,14:20,0.338,0.204,0.341,0.320,0.303,0.168,0.101,west,8.4,No
2017/12/26,14:30,0.340,0.205,0.341,0.320,0.306,0.169,0.101,west-southwest,7.5,No
2017/12/26,14:40,0.337,0.205,0.341,0.320,0.305,0.169,0.101,west,9.2,No
2017/12/26,14:50,0.339,0.205,0.342,0.320,0.305,0.170,0.101,west,7.3,No
2017/12/26,15:00,0.340,0.206,0.343,0.321,0.305,0.170,0.101,west,7.6,No
2017/12/26,15:10,0.338,0.205,0.342,0.320,0.306,0.171,0.101,northwest,5.7,No
2017/12/26,15:20,0.338,0.206,0.343,0.321,0.307,0.168,0.101,northwest,4.6,No
2017/12/26,15:30,0.340,0.206,0.341,0.322,0.307,0.169,0.101,west,4.8,No
2017/12/26,15:40,0.339,0.206,0.343,0.321,0.305,0.169,0.101,west-northwest,4.8,No
2017/12/26,15:50,0.338,0.206,0.343,0.321,0.306,0.170,0.101,west-northwest,4.6,No
2017/12/26,16:00,0.340,0.205,0.342,0.322,0.307,0.169,0.101,west,3.8,No
2017/12/26,16:10,0.338,0.205,0.344,0.320,0.305,0.169,0.100,west,3.6,No
2017/12/26,16:20,0.339,0.205,0.343,0.320,0.305,0.170,0.101,west-northwest,2.9,No
2017/12/26,16:30,0.337,0.207,0.342,0.321,0.306,0.170,0.101,west,6.7,No
2017/12/26,16:40,0.337,0.205,0.342,0.320,0.305,0.170,0.101,west-northwest,4.4,No
2017/12/26,16:50,0.340,0.205,0.343,0.320,0.305,0.170,0.101,west-northwest,3.8,No
2017/12/26,17:00,0.338,0.205,0.343,0.320,0.306,0.170,0.102,west-northwest,6.3,No
2017/12/26,17:10,0.339,0.206,0.342,0.320,0.306,0.170,0.102,west,9.0,Yes
2017/12/26,17:20,0.339,0.206,0.344,0.321,0.306,0.171,0.103,west,9.5,Yes
2017/12/26,17:30,0.340,0.206,0.344,0.323,0.307,0.171,0.103,west,7.0,No
2017/12/26,17:40,0.339,0.207,0.343,0.323,0.307,0.172,0.103,northwest,6.7,No
2017/12/26,17:50,0.340,0.207,0.344,0.322,0.307,0.171,0.103,west-northwest,6.3,No
2017/12/26,18:00,0.339,0.207,0.345,0.324,0.306,0.171,0.102,west-northwest,6.4,No
2017/12/26,18:10,0.340,0.206,0.345,0.324,0.307,0.171,0.103,west-northwest,6.3,No
2017/12/26,18:20,0.339,0.207,0.343,0.322,0.306,0.170,0.102,west-northwest,5.9,No
2017/12/26,18:30,0.340,0.206,0.344,0.322,0.307,0.171,0.103,northwest,6.3,No
2017/12/26,18:40,0.339,0.206,0.343,0.323,0.307,0.170,0.102,northwest,6.0,No
2017/12/26,18:50,0.340,0.207,0.345,0.322,0.306,0.170,0.102,northwest,4.8,No
2017/12/26,19:00,0.342,0.206,0.344,0.322,0.305,0.171,0.102,west-northwest,5.1,No
2017/12/26,19:10,0.340,0.207,0.344,0.320,0.306,0.170,0.102,west-northwest,5.0,No
2017/12/26,19:20,0.339,0.205,0.344,0.321,0.306,0.170,0.102,west,6.8,No
2017/12/26,19:30,0.340,0.207,0.343,0.321,0.306,0.171,0.102,west,8.1,No
2017/12/26,19:40,0.339,0.206,0.344,0.323,0.305,0.170,0.102,west,8.4,No
2017/12/26,19:50,0.340,0.205,0.344,0.321,0.306,0.170,0.102,west,7.3,No
2017/12/26,20:00,0.340,0.206,0.344,0.322,0.306,0.171,0.102,west-northwest,6.2,No
2017/12/26,20:10,0.341,0.206,0.343,0.322,0.306,0.171,0.102,west-northwest,6.2,No
2017/12/26,20:20,0.341,0.207,0.344,0.322,0.305,0.171,0.102,west,8.2,No
2017/12/26,20:30,0.340,0.205,0.344,0.322,0.305,0.170,0.101,west,7.1,No
2017/12/26,20:40,0.341,0.205,0.343,0.322,0.306,0.170,0.102,west-northwest,7.7,No
2017/12/26,20:50,0.340,0.206,0.345,0.321,0.305,0.169,0.103,west-northwest,6.4,No
2017/12/26,21:00,0.339,0.206,0.343,0.321,0.306,0.171,0.102,west-northwest,6.6,No
2017/12/26,21:10,0.340,0.205,0.343,0.319,0.306,0.171,0.103,west-northwest,8.2,No
2017/12/26,21:20,0.338,0.206,0.344,0.321,0.305,0.170,0.102,west,7.5,No
2017/12/26,21:30,0.340,0.205,0.345,0.322,0.305,0.170,0.102,west,7.6,No
2017/12/26,21:40,0.340,0.206,0.343,0.321,0.305,0.171,0.102,west,7.6,No
2017/12/26,21:50,0.338,0.205,0.344,0.321,0.305,0.170,0.102,west,8.7,No
2017/12/26,22:00,0.339,0.205,0.345,0.323,0.305,0.170,0.102,west,9.2,No
2017/12/26,22:10,0.339,0.205,0.344,0.321,0.304,0.170,0.102,west,7.3,No
2017/12/26,22:20,0.340,0.205,0.343,0.321,0.305,0.170,0.102,west,8.5,No
2017/12/26,22:30,0.341,0.205,0.344,0.321,0.305,0.171,0.101,west-northwest,7.0,No
2017/12/26,22:40,0.340,0.206,0.344,0.321,0.306,0.170,0.101,west-northwest,7.5,No
2017/12/26,22:50,0.339,0.205,0.345,0.319,0.305,0.170,0.101,west-northwest,7.9,No
2017/12/26,23:00,0.339,0.207,0.342,0.321,0.306,0.170,0.101,west,7.5,No
2017/12/26,23:10,0.340,0.205,0.342,0.320,0.305,0.170,0.101,west,6.7,No
2017/12/26,23:20,0.339,0.206,0.344,0.321,0.305,0.171,0.101,west,7.0,No
2017/12/26,23:30,0.339,0.206,0.343,0.320,0.306,0.170,0.102,west,9.0,No
2017/12/26,23:40,0.339,0.205,0.344,0.321,0.306,0.170,0.102,west-northwest,6.0,No
2017/12/26,23:50,0.339,0.205,0.343,0.320,0.305,0.170,0.102,west,7.0,No
